GW5020 Weather Reports


time (UTC)temp
C
wind
direction
speed
KPH
gust
KPH
rain 1hr
cm
rain 24hr
cm
rain mn
cm
humidity
%
barometer
mb
20260509135433 23 265 1.6 3.2 0.00 0.00 0.00 93 1009.9
20260509134930 23 205 1.6 3.2 0.00 0.00 0.00 93 1010.0
20260509134427 22 185 3.2 3.2 0.00 0.00 0.00 94 1010.1
20260509133925 22 249 1.6 1.6 0.00 0.00 0.00 95 1010.0
20260509133421 22 201 1.6 3.2 0.00 0.00 0.00 96 1009.9
20260509132920 22 246 0.0 1.6 0.00 0.00 0.00 96 1010.1
20260509132417 22 246 3.2 3.2 0.00 0.00 0.00 96 1010.2
20260509131914 22 241 1.6 3.2 0.00 0.00 0.00 96 1010.1
20260509131411 22 229 1.6 4.8 0.00 0.00 0.00 97 1010.1
20260509130908 22 247 3.2 4.8 0.00 0.00 0.00 97 1010.1
20260509130403 22 273 1.6 3.2 0.00 0.00 0.00 97 1009.9
20260509125900 22 255 3.2 3.2 0.00 0.00 0.00 97 1010.0
20260509125357 22 223 0.0 3.2 0.00 0.00 0.00 97 1010.1
20260509124852 22 246 0.0 0.0 0.00 0.00 0.00 97 1010.2
20260509124350 21 258 3.2 3.2 0.00 0.00 0.00 97 1010.1
20260509123848 21 185 1.6 3.2 0.00 0.00 0.00 97 1010.1
20260509123345 21 183 1.6 3.2 0.00 0.00 0.00 97 1010.0
20260509122840 21 283 0.0 4.8 0.00 0.00 0.00 97 1010.2
20260509122337 21 235 3.2 6.4 0.00 0.00 0.00 97 1010.1
20260509121834 21 252 0.0 6.4 0.00 0.00 0.00 97 1009.9
20260509121331 21 264 3.2 6.4 0.00 0.00 0.00 98 1010.0
20260509120830 21 233 0.0 3.2 0.00 0.00 0.00 98 1009.9
20260509120327 21 236 0.0 3.2 0.00 0.00 0.00 98 1010.0
20260509115825 21 241 1.6 4.8 0.00 0.00 0.00 98 1009.9
20260509115322 21 269 0.0 3.2 0.00 0.00 0.00 98 1009.5
20260509114820 21 175 1.6 1.6 0.00 0.00 0.00 98 1009.6
20260509114318 21 142 0.0 1.6 0.00 0.00 0.00 98 1009.6
20260509113817 21 145 3.2 4.8 0.00 0.00 0.00 98 1009.6
20260509113313 21 189 0.0 1.6 0.00 0.00 0.00 98 1009.2
20260509112810 21 223 0.0 4.8 0.00 0.00 0.00 98 1009.0
20260509112308 21 302 0.0 4.8 0.00 0.00 0.00 98 1009.1
20260509111805 21 201 0.0 3.2 0.00 0.00 0.00 98 1008.7
20260509111301 21 53 0.0 4.8 0.00 0.00 0.00 98 1008.5
20260509110759 21 204 1.6 8.0 0.00 0.00 0.00 98 1008.4
20260509110255 21 5 3.2 3.2 0.00 0.00 0.00 98 1007.8
20260509105754 21 157 0.0 3.2 0.00 0.00 0.00 98 1007.8
20260509105251 21 315 0.0 1.6 0.00 0.00 0.00 98 1008.0
20260509104747 21 10 6.4 6.4 0.00 0.00 0.00 98 1008.1
20260509104244 21 246 1.6 3.2 0.00 0.00 0.00 98 1008.1
20260509103743 21 0 0.0 3.2 0.00 0.00 0.00 98 1008.0
20260509103239 21 286 0.0 1.6 0.00 0.00 0.00 98 1008.0
20260509102738 21 182 1.6 3.2 0.00 0.00 0.00 98 1008.2
20260509102234 21 224 0.0 6.4 0.00 0.00 0.00 98 1008.0
20260509101731 21 84 1.6 3.2 0.00 0.00 0.00 98 1008.0
20260509101227 21 172 0.0 1.6 0.00 0.00 0.00 98 1008.2
20260509100724 21 147 0.0 1.6 0.00 0.00 0.00 98 1008.3
20260509100222 21 237 0.0 1.6 0.00 0.00 0.00 97 1008.2
20260509095718 21 304 0.0 3.2 0.00 0.00 0.00 97 1008.4
20260509095216 21 320 0.0 3.2 0.00 0.00 0.00 97 1008.4
20260509094712 21 64 1.6 3.2 0.00 0.00 0.00 97 1008.4
20260509094209 21 199 0.0 0.0 0.00 0.00 0.00 97 1008.7
20260509093708 21 67 1.6 3.2 0.00 0.00 0.00 97 1008.7
20260509093204 21 202 0.0 3.2 0.00 0.00 0.00 97 1009.1
20260509092702 21 39 0.0 3.2 0.00 0.00 0.00 97 1009.2
20260509092200 21 86 1.6 3.2 0.00 0.00 0.00 96 1009.2
20260509091658 21 312 0.0 3.2 0.00 0.00 0.00 96 1009.4
20260509091154 21 310 0.0 0.0 0.00 0.00 0.00 96 1009.3
20260509090652 21 217 1.6 1.6 0.00 0.00 0.00 96 1009.1
20260509090148 21 230 0.0 0.0 0.00 0.00 0.00 96 1009.3
20260509085646 21 217 0.0 0.0 0.00 0.00 0.00 96 1009.1
20260509085142 21 229 0.0 1.6 0.00 0.00 0.00 96 1009.2
20260509084640 21 246 0.0 0.0 0.00 0.00 0.00 96 1009.2
20260509084137 21 217 0.0 0.0 0.00 0.00 0.00 96 1009.4
20260509083634 21 212 0.0 0.0 0.00 0.00 0.00 96 1009.2
20260509083130 21 269 0.0 0.0 0.00 0.00 0.00 96 1009.5
20260509082628 21 246 0.0 0.0 0.00 0.00 0.00 96 1009.5
20260509082125 21 322 0.0 1.6 0.00 0.00 0.00 96 1009.7
20260509081622 21 214 0.0 0.0 0.00 0.00 0.00 96 1009.8
20260509081119 21 306 0.0 0.0 0.00 0.00 0.00 96 1010.0
20260509080617 21 229 0.0 0.0 0.00 0.00 0.00 95 1010.0
20260509080114 21 304 0.0 0.0 0.00 0.00 0.00 95 1010.0
20260509075612 21 195 0.0 0.0 0.00 0.00 0.00 95 1010.0
20260509075110 21 195 0.0 0.0 0.00 0.00 0.00 95 1010.0
20260509074606 21 195 0.0 0.0 0.00 0.00 0.00 95 1010.0
20260509074103 21 178 1.6 1.6 0.00 0.00 0.00 95 1010.2
20260509073600 21 230 0.0 0.0 0.00 0.00 0.00 95 1010.2
20260509073056 21 227 0.0 1.6 0.00 0.00 0.00 95 1010.1
20260509072553 21 195 0.0 0.0 0.00 0.00 0.00 95 1010.2
20260509072049 21 195 0.0 0.0 0.00 0.00 0.00 95 1010.2
20260509071546 21 195 0.0 0.0 0.00 0.00 0.00 95 1010.2
20260509071044 21 239 1.6 1.6 0.00 0.00 0.00 95 1010.2
20260509070541 21 217 0.0 0.0 0.00 0.00 0.00 95 1010.1
20260509070037 21 342 4.8 4.8 0.00 0.00 0.00 95 1010.1
20260509065532 21 229 0.0 1.6 0.00 0.00 0.00 95 1010.0
20260509065029 21 202 0.0 0.0 0.00 0.00 0.00 95 1010.0
20260509064527 21 202 0.0 0.0 0.00 0.00 0.00 95 1010.2
20260509064025 21 235 0.0 1.6 0.00 0.00 0.00 95 1010.3
20260509063519 21 217 0.0 1.6 0.00 0.00 0.00 95 1010.3
20260509063017 21 235 0.0 0.0 0.00 0.00 0.00 95 1010.1
20260509062514 21 230 0.0 3.2 0.00 0.00 0.00 95 1010.3
20260509062012 21 315 0.0 0.0 0.00 0.00 0.00 94 1009.9
20260509061509 21 102 0.0 3.2 0.00 0.00 0.00 94 1009.7
20260509061006 21 310 0.0 3.2 0.00 0.00 0.00 94 1009.6
20260509060503 21 69 0.0 6.4 0.00 0.00 0.00 94 1009.3
20260509055959 21 5 1.6 6.4 0.00 0.00 0.00 94 1008.8
20260509055454 21 137 0.0 1.6 0.00 0.00 0.00 93 1009.7
20260509054951 21 230 0.0 0.0 0.00 0.00 0.00 93 1010.3
20260509054448 21 195 0.0 0.0 0.00 0.00 0.00 93 1010.5
20260509053946 21 217 0.0 1.6 0.00 0.00 0.00 93 1010.6
20260509053444 21 242 0.0 0.0 0.00 0.00 0.00 93 1010.8
20260509052941 21 242 0.0 0.0 0.00 0.00 0.00 93 1010.8
20260509052438 21 242 0.0 0.0 0.00 0.00 0.00 93 1010.8
20260509051936 21 269 0.0 0.0 0.00 0.00 0.00 93 1010.7
20260509051433 21 230 0.0 0.0 0.00 0.00 0.00 93 1010.8
20260509050930 21 246 0.0 0.0 0.00 0.00 0.00 93 1010.7
20260509050427 21 230 0.0 0.0 0.00 0.00 0.00 93 1010.6
20260509045924 21 230 0.0 0.0 0.00 0.00 0.00 93 1010.5
20260509045421 21 297 0.0 0.0 0.00 0.00 0.00 93 1010.5
20260509044918 21 309 0.0 1.6 0.00 0.00 0.00 93 1010.5
20260509044415 21 217 0.0 0.0 0.00 0.00 0.00 93 1010.2
20260509043912 21 217 0.0 0.0 0.00 0.00 0.00 92 1010.3
20260509043408 21 217 0.0 0.0 0.00 0.00 0.00 92 1010.1
20260509042904 21 217 0.0 0.0 0.00 0.00 0.00 92 1010.2
20260509042401 21 230 0.0 0.0 0.00 0.00 0.00 92 1010.3
20260509041857 21 229 0.0 0.0 0.00 0.00 0.00 92 1010.2
20260509041354 21 209 0.0 1.6 0.00 0.00 0.00 92 1010.0
20260509040852 21 248 0.0 0.0 0.00 0.00 0.00 92 1009.9
20260509040350 21 217 0.0 0.0 0.00 0.00 0.00 92 1009.8
20260509035847 21 217 0.0 0.0 0.00 0.00 0.00 92 1009.8
20260509035344 21 224 0.0 0.0 0.00 0.00 0.00 92 1009.7
20260509034840 21 224 0.0 0.0 0.00 0.00 0.00 92 1009.7
20260509034338 21 217 0.0 0.0 0.00 0.00 0.00 91 1009.4
20260509033834 21 217 0.0 0.0 0.00 0.00 0.00 91 1009.5
20260509033332 21 217 0.0 0.0 0.00 0.00 0.00 91 1009.6
20260509032828 21 202 0.0 0.0 0.00 0.00 0.00 91 1009.6
20260509032326 21 217 0.0 0.0 0.00 0.00 0.00 91 1009.7
20260509031824 21 217 0.0 0.0 0.00 0.00 0.00 91 1009.6
20260509031320 21 217 0.0 0.0 0.00 0.00 0.00 91 1009.7
20260509030818 21 217 0.0 0.0 0.00 0.00 0.00 91 1009.5
20260509030316 21 217 0.0 0.0 0.00 0.00 0.00 91 1009.5
20260509025812 21 217 0.0 0.0 0.00 0.00 0.00 91 1009.4
20260509025308 21 217 0.0 0.0 0.00 0.00 0.00 91 1009.4
20260509024804 21 217 0.0 0.0 0.00 0.00 0.00 90 1009.4
20260509024300 21 230 0.0 0.0 0.00 0.00 0.00 90 1009.1
20260509023757 21 230 0.0 0.0 0.00 0.00 0.00 90 1009.1
20260509023254 21 224 0.0 0.0 0.00 0.00 0.00 90 1009.2
20260509022750 21 217 0.0 0.0 0.00 0.00 0.00 90 1009.0
20260509022248 21 218 0.0 0.0 0.00 0.00 0.00 90 1009.0
20260509021745 21 218 0.0 0.0 0.00 0.00 0.00 90 1008.7
20260509021242 21 218 0.0 0.0 0.00 0.00 0.00 89 1008.8
20260509020740 21 242 0.0 0.0 0.00 0.00 0.00 89 1008.7
20260509020237 21 235 0.0 0.0 0.00 0.00 0.00 89 1008.7
20260509015735 21 217 0.0 0.0 0.00 0.00 0.00 89 1008.6
20260509015233 21 212 0.0 1.6 0.00 0.00 0.00 89 1008.6
20260509014729 21 217 0.0 1.6 0.00 0.00 0.00 89 1008.5
20260509014226 22 242 0.0 0.0 0.00 0.00 0.00 88 1008.4
20260509013723 22 242 0.0 0.0 0.00 0.00 0.00 88 1008.3
20260509013218 22 269 0.0 1.6 0.00 0.00 0.00 88 1008.2
20260509012715 22 217 0.0 0.0 0.00 0.00 0.00 88 1008.2
20260509012212 22 217 0.0 0.0 0.00 0.00 0.00 87 1008.2
20260509011710 22 217 0.0 0.0 0.00 0.00 0.00 87 1008.1
20260509011207 22 217 0.0 0.0 0.00 0.00 0.00 86 1008.0
20260509010705 22 230 0.0 0.0 0.00 0.00 0.00 85 1008.3
20260509010201 22 235 0.0 0.0 0.00 0.00 0.00 85 1008.2
20260509005658 22 230 0.0 0.0 0.00 0.00 0.00 84 1007.8
20260509005155 22 142 0.0 1.6 0.00 0.00 0.00 84 1008.1
20260509004650 23 154 0.0 0.0 0.00 0.00 0.00 83 1008.1
20260509004148 23 154 0.0 0.0 0.00 0.00 0.00 83 1008.1
20260509003646 23 154 0.0 0.0 0.00 0.00 0.00 82 1008.0
20260509003143 23 154 0.0 0.0 0.00 0.00 0.00 81 1008.1
20260509002640 23 155 0.0 1.6 0.00 0.00 0.00 80 1008.0
20260509002138 23 180 0.0 0.0 0.00 0.00 0.00 78 1008.0
20260509001635 24 217 0.0 0.0 0.00 0.00 0.00 78 1008.1
20260509001131 24 322 0.0 0.0 0.00 0.00 0.00 77 1008.0
20260509000629 25 322 0.0 1.6 0.00 0.00 0.00 75 1008.1
20260509000125 25 142 0.0 0.0 0.00 0.00 0.00 76 1008.0
20260508235623 24 205 0.0 0.0 0.00 0.00 0.00 77 1008.3
20260508235119 24 117 0.0 0.0 0.00 0.00 0.00 77 1008.2
20260508234617 25 115 0.0 1.6 0.00 0.00 0.00 75 1008.5
20260508234113 25 304 0.0 1.6 0.00 0.00 0.00 72 1008.1
20260508233613 25 160 0.0 6.4 0.00 0.00 0.00 72 1007.9
20260508233110 25 97 0.0 6.4 0.00 0.00 0.00 72 1007.9
20260508232607 26 284 0.0 3.2 0.00 0.00 0.00 71 1008.1
20260508232103 26 326 0.0 3.2 0.00 0.00 0.00 70 1008.1
20260508231601 26 180 0.0 3.2 0.00 0.00 0.00 70 1008.0
20260508231058 26 192 3.2 3.2 0.00 0.00 0.00 68 1007.9
20260508230554 26 357 0.0 4.8 0.00 0.00 0.00 67 1007.6
20260508230051 26 283 0.0 3.2 0.00 0.00 0.00 66 1007.5
20260508225549 26 135 0.0 4.8 0.00 0.00 0.00 67 1007.6
20260508225045 26 135 0.0 1.6 0.00 0.00 0.00 68 1007.7
20260508224543 26 189 1.6 3.2 0.00 0.00 0.00 69 1007.8
20260508224040 25 322 0.0 1.6 0.00 0.00 0.00 75 1007.8
20260508223538 25 150 0.0 1.6 0.00 0.00 0.00 72 1008.1
20260508223035 26 108 0.0 1.6 0.00 0.00 0.00 74 1008.4
20260508222532 25 109 0.0 1.6 0.00 0.00 0.00 75 1008.5
20260508222029 24 180 1.6 1.6 0.00 0.00 0.00 78 1008.8
20260508221525 24 121 0.0 3.2 0.00 0.00 0.00 77 1009.3
20260508221021 25 242 0.0 1.6 0.00 0.00 0.00 78 1009.2
20260508220518 23 163 0.0 3.2 0.05 0.00 0.00 81 1009.5
20260508220014 23 232 0.0 0.0 0.05 0.00 0.00 87 1009.4
20260508215511 23 217 0.0 3.2 0.00 0.00 0.00 85 1009.4
20260508215008 22 269 0.0 0.0 0.00 0.00 0.00 86 1009.3
20260508214506 22 256 0.0 1.6 0.00 0.00 0.00 88 1009.1
20260508214001 22 164 0.0 0.0 0.00 0.00 0.00 86 1008.6
20260508213459 22 89 0.0 1.6 0.00 0.00 0.00 84 1008.5
20260508212954 23 142 0.0 0.0 0.00 0.00 0.00 81 1008.9
20260508212451 23 109 0.0 1.6 0.00 0.00 0.00 79 1009.2
20260508211947 23 164 0.0 1.6 0.00 0.00 0.00 75 1009.8
20260508211443 24 142 0.0 0.0 0.00 0.00 0.00 72 1009.8
20260508210940 24 231 4.8 4.8 0.00 0.00 0.00 69 1010.0
20260508210437 25 167 0.0 0.0 0.00 0.00 0.00 70 1009.9
20260508205933 25 236 3.2 3.2 0.00 0.00 0.00 68 1009.8
20260508205430 25 255 0.0 1.6 0.00 0.00 0.00 65 1009.6
20260508204926 25 197 0.0 3.2 0.00 0.00 0.00 65 1009.5
20260508204424 25 202 0.0 1.6 0.00 0.00 0.00 67 1009.5
20260508203919 25 205 0.0 1.6 0.00 0.00 0.00 68 1009.9
20260508203416 25 232 0.0 1.6 0.00 0.00 0.00 65 1009.7
20260508202911 25 251 0.0 3.2 0.00 0.00 0.00 62 1009.8
20260508202409 25 269 0.0 3.2 0.00 0.00 0.00 63 1009.8
20260508201906 25 247 1.6 3.2 0.00 0.00 0.00 65 1009.8
20260508201403 26 197 3.2 3.2 0.00 0.00 0.00 65 1009.6
20260508200859 26 224 0.0 1.6 0.00 0.00 0.00 63 1009.5
20260508200356 26 264 1.6 1.6 0.00 0.00 0.00 66 1009.5
20260508195852 26 291 0.0 3.2 0.00 0.00 0.00 64 1009.5
20260508195349 26 49 0.0 3.2 0.00 0.00 0.00 60 1009.9
20260508194845 27 232 0.0 1.6 0.00 0.00 0.00 62 1010.0
20260508194342 27 225 0.0 1.6 0.00 0.00 0.00 61 1010.1
20260508193839 27 319 1.6 3.2 0.00 0.00 0.00 60 1010.2
20260508193336 26 233 3.2 4.8 0.00 0.00 0.00 57 1010.2
20260508192832 26 272 3.2 3.2 0.00 0.00 0.00 57 1010.4
20260508192329 25 38 0.0 0.0 0.00 0.00 0.00 62 1010.3
20260508191826 26 269 0.0 3.2 0.00 0.00 0.00 61 1010.6
20260508191323 26 326 0.0 4.8 0.00 0.00 0.00 60 1010.7
20260508190821 26 62 0.0 4.8 0.00 0.00 0.00 58 1010.7
20260508190317 27 210 1.6 3.2 0.00 0.00 0.00 57 1010.5
20260508185813 26 114 0.0 1.6 0.00 0.00 0.00 58 1010.6
20260508185311 26 197 0.0 3.2 0.00 0.00 0.00 59 1010.7
20260508184808 25 175 0.0 3.2 0.00 0.00 0.00 62 1011.0
20260508184305 25 89 0.0 3.2 0.00 0.00 0.00 62 1011.0
20260508183803 25 208 0.0 3.2 0.00 0.00 0.00 62 1011.2
20260508183259 25 241 3.2 6.4 0.00 0.00 0.00 59 1011.2
20260508182754 25 230 0.0 1.6 0.00 0.00 0.00 62 1011.1
20260508182251 26 104 0.0 1.6 0.00 0.00 0.00 61 1011.2
20260508181747 26 264 3.2 3.2 0.00 0.00 0.00 61 1011.2
20260508181244 25 354 1.6 4.8 0.00 0.00 0.00 62 1011.5
20260508180741 25 286 0.0 3.2 0.00 0.00 0.00 62 1011.6
20260508180238 26 117 0.0 3.2 0.00 0.00 0.00 60 1011.9
20260508175734 25 62 0.0 3.2 0.00 0.00 0.00 61 1011.6
20260508175231 25 66 0.0 4.8 0.00 0.00 0.00 61 1011.5
20260508174729 25 225 1.6 3.2 0.00 0.00 0.00 62 1012.0
20260508174226 25 234 3.2 4.8 0.00 0.00 0.00 59 1011.9
20260508173722 25 93 1.6 4.8 0.00 0.00 0.00 61 1012.2
20260508173218 25 246 3.2 4.8 0.00 0.00 0.00 60 1012.1
20260508172715 25 13 0.0 3.2 0.00 0.00 0.00 64 1012.0
20260508172212 25 269 0.0 4.8 0.00 0.00 0.00 65 1012.5
20260508171709 24 73 3.2 3.2 0.00 0.00 0.00 66 1012.4
20260508171205 23 107 0.0 3.2 0.00 0.00 0.00 66 1012.7
20260508170702 23 266 3.2 4.8 0.00 0.00 0.00 67 1012.5
20260508170200 22 44 0.0 3.2 0.00 0.00 0.00 70 1012.7
20260508165656 23 229 3.2 3.2 0.00 0.00 0.00 68 1013.0
20260508165153 23 135 0.0 6.4 0.00 0.00 0.00 67 1013.1
20260508164650 23 128 0.0 3.2 0.00 0.00 0.00 69 1013.1
20260508164146 23 309 0.0 3.2 0.00 0.00 0.00 68 1013.1
20260508163644 23 145 0.0 3.2 0.00 0.00 0.00 66 1013.4
20260508163142 23 254 3.2 6.4 0.00 0.00 0.00 67 1013.5
20260508162637 23 133 1.6 4.8 0.00 0.00 0.00 68 1013.3
20260508162135 22 289 0.0 3.2 0.00 0.00 0.00 69 1013.6
20260508161631 22 321 3.2 3.2 0.00 0.00 0.00 69 1013.7
20260508161129 23 87 0.0 1.6 0.00 0.00 0.00 69 1013.6
20260508160627 22 107 0.0 3.2 0.00 0.00 0.00 71 1013.9
20260508160125 22 224 0.0 1.6 0.00 0.00 0.00 74 1013.8
20260508155621 21 283 0.0 1.6 0.00 0.00 0.00 76 1013.9
20260508155118 21 89 0.0 1.6 0.00 0.00 0.00 72 1013.8
20260508154615 21 116 0.0 3.2 0.00 0.00 0.00 74 1014.1
20260508154106 21 207 0.0 1.6 0.00 0.00 0.00 75 1014.1
20260508153603 21 91 3.2 3.2 0.00 0.00 0.00 76 1014.3
20260508153059 21 271 1.6 3.2 0.00 0.00 0.00 77 1014.2
20260508152557 20 148 1.6 1.6 0.00 0.00 0.00 77 1014.3
20260508152051 20 82 0.0 3.2 0.00 0.00 0.00 77 1014.1
20260508151548 20 81 1.6 3.2 0.00 0.00 0.00 75 1014.2
20260508151045 20 140 0.0 3.2 0.00 0.00 0.00 79 1014.4
20260508150543 20 89 0.0 1.6 0.00 0.00 0.00 78 1014.2
20260508150038 20 195 0.0 1.6 0.00 0.00 0.00 80 1014.6
20260508145535 20 80 0.0 0.0 0.00 0.00 0.00 78 1014.4
20260508145031 21 217 0.0 3.2 0.00 0.00 0.00 77 1014.3
20260508144529 21 80 0.0 3.2 0.00 0.00 0.00 75 1014.0
20260508144026 21 92 0.0 3.2 0.00 0.00 0.00 74 1014.2
20260508143524 21 76 0.0 3.2 0.00 0.00 0.00 72 1014.2
20260508143020 22 175 0.0 0.0 0.00 0.00 0.00 73 1014.1
20260508142518 21 53 0.0 3.2 0.00 0.00 0.00 76 1014.2
20260508142014 21 180 0.0 1.6 0.00 0.00 0.00 74 1014.2
20260508141510 21 147 0.0 3.2 0.00 0.00 0.00 76 1014.0
20260508141008 20 175 1.6 3.2 0.00 0.00 0.00 79 1014.2
20260508140505 20 38 0.0 3.2 0.00 0.00 0.00 79 1014.0
20260508140000 20 157 0.0 0.0 0.00 0.00 0.00 83 1014.2